Regional Weather Roundup
Issued by NWS Newport/Morehead, NC

Current Version | Previous Version | Text Only | Print | Product List | Glossary On
Versions: 1 2 3 4 5 6 7 8 9 10 11 12 13 14 15 16 17 18 19 20 21 22 23 24 25 26 27 28 29 30 31 32 33 34 35 36 37 38 39 40 41 42 43 44 45 46 47 48 49 50
000
ASUS42 KMHX 192125
RWRMHX
WEATHER ROUNDUP FOR EASTERN NORTH CAROLINA
NATIONAL WEATHER SERVICE NEWPORT/MOREHEAD CITY NC
500 PM EDT WED JUL 19 2017

NOTE: "FAIR" INDICATES FEW OR NO CLOUDS BELOW 12,000 FEET
WITH NO SIGNIFICANT WEATHER AND/OR OBSTRUCTIONS TO VISIBILITY

NCZ015>017-031-032-045>047-102-103-192200-
NORTH COAST

CITY           SKY/WX    TMP DP  RH WIND       PRES   REMARKS
EDENTON        SUNNY     89  71  55 CALM      30.04F
ELIZABETH CITY MOSUNNY   88  74  63 VRB6      30.04F
KITTY HAWK     CLEAR     83  72  67 SE5       30.04S
MANTEO         SUNNY     83  73  70 S8        30.05F

$$

NCZ045>047-081-094-103-104-192200-
CENTRAL COAST

CITY           SKY/WX    TMP DP  RH WIND       PRES   REMARKS
FRISCO         SUNNY     86  71  60 S8        30.07F

$$

NCZ095-097-098-100-101-192200-
SOUTHERN COAST

CITY           SKY/WX    TMP DP  RH WIND       PRES   REMARKS
BEAUFORT       SUNNY     83  75  77 S12       30.05F
CEDAR ISLAND   NOT AVBL
JACKSONVILLE   PTSUNNY   83  75  77 S8        30.05S THUNDER
PINEY ISLAND   PTCLDY   N/A N/A N/A S10       30.06S
WILMINGTON     TSTM      72  69  90 VRB6      30.06F FOG


$$

NCZ011>013-027>030-043-044-078>080-089-090>093-098-192200-
COASTAL PLAIN

CITY           SKY/WX    TMP DP  RH WIND       PRES   REMARKS
AHOSKIE          N/A     87  70  57 SE3       30.03F
CLINTON        SUNNY     89  72  56 NW6       30.04S
ELIZABETHTOWN  NOT AVBL
GOLDSBORO      SUNNY     91  71  52 CALM      30.02F
GREENVILLE     MOSUNNY   90  70  51 N5        30.04F
HAVELOCK       PTSUNNY   74  71  91 SW7       30.07
KENANSVILLE    PTSUNNY   86  73  66 S7        30.04S
KINSTON        PTSUNNY   88  73  62 S6        30.04F
NEW BERN       CLOUDY    84  71  65 SE8       30.06S
RICHLANDS      MOSUNNY   86  72  62 SE5       30.05F
ROCKY MOUNT    SUNNY     90  69  50 N5        30.03F
WASHINGTON     MOSUNNY   86  72  62 CALM      30.03F
WHITEVILLE     SUNNY     89  67  49 NE3       30.04S

$$

AMZ130-135-150-152-154-156-158-170-250-252-270-ANZ085-086-088-633-658-670-192200-
MARINE OBSERVATIONS

STATION/POSITION TIME  TEMP    WIND        PRES    WAVE   SWELL
                       AIR SEA DIR/SP/G            HT/PER HT/PER
                 (UTC) (F)     (DEG/KT/KT) (MB)    (FT/S) (FT/S)
CHESAPEAKE LIGHT NOT AVBL
64 E VA BEACH    2050   79 82  200/  8/ 10 1018.1    2/ 6   2/ 6
DUCK             2100   75 63  140/ 10/ 12 1017.2
2 E DUCK         NOT AVBL
OREGON INLET     2100   81 84  120/  6/ 11 1017.9
13E OREGON INLT  2048      79                N/A     2/14   2/14
HATTERAS CG      2100   83 81  160/  9/ 11 1017.9
DIAMOND BUOY     2050   82 87  170/  8/ 10 1018.1    2/ 8   2/ 8
CAPE LOOKOUT     2100   81     160/  7/  8 1017.4
BEAUFORT LAB     2100   82 79  170/  8/ 10 1017.1
30 SE NEW RVR IN 2108   81 85  140/  4/  6 1017.6
30 SE NEW RVR IN 2043      85                N/A     2/ 8   2/12
27 SE WRIGHTSVLE 2108   82 83  110/  6/  8 1017.4
5 SE WRIGHTSVLE  2108   81 83  120/  8/ 10 1017.3
225 S CAPE HAT   2050   75 83  230/  8/ 10 1019.8    4/ 7   3/ 7
41 SE CHARLESTON 2100   82 84  200/  4/  8 1017.9

$$




USA.gov is the U.S. government's official web portal to all federal, state and local government web resources and services.